N1NSI Weather Reports


time (UTC)temp
F
wind
direction
speed
knots
gust
knots
rain 1hr
in
rain 24hr
in
rain mn
in
humidity
%
barometer
mb
20210414120028 45 101 0.0 1.7 0.00 0.00 0.00 86 1018.7
20210414115744 45 94 0.0 1.7 0.00 0.00 0.00 87 1018.7
20210414115158 44 90 0.0 1.7 0.00 0.00 0.00 87 1018.7
20210414112907 44 0 0.0 0.0 0.00 0.00 0.00 85 1018.4
20210414112424 44 0 0.0 0.0 0.00 0.00 0.00 85 1018.4
20210414110546 44 0 0.0 0.0 0.00 0.00 0.00 84 1018.4
20210414110301 44 0 0.0 0.0 0.00 0.00 0.00 83 1018.3
20210414110033 44 0 0.0 0.0 0.00 0.00 0.00 83 1018.3
20210414105417 44 0 0.0 0.0 0.00 0.00 0.00 83 1018.3
20210414104518 44 0 0.0 0.0 0.00 0.00 0.00 83 1018.1
20210414104023 45 0 0.0 0.0 0.00 0.00 0.00 83 1018.1
20210414103518 45 0 0.0 0.0 0.00 0.00 0.00 82 1018.1
20210414103023 45 0 0.0 0.0 0.00 0.00 0.00 82 1018.1
20210414102824 45 0 0.0 0.0 0.00 0.00 0.00 82 1018.0
20210414102343 45 0 0.0 0.0 0.00 0.00 0.00 82 1018.0
20210414101510 45 0 0.0 0.0 0.00 0.00 0.00 83 1018.0
20210414101019 45 0 0.0 0.0 0.00 0.00 0.00 82 1018.0
20210414100522 45 0 0.0 0.0 0.00 0.00 0.00 81 1018.0
20210414100021 45 0 0.0 0.0 0.00 0.00 0.00 81 1017.9
20210414095836 45 0 0.0 0.0 0.00 0.00 0.00 81 1017.9
20210414095147 45 0 0.0 0.0 0.00 0.00 0.00 81 1017.9
20210414094516 46 0 0.0 0.0 0.00 0.00 0.00 81 1017.9
20210414093020 46 0 0.0 0.0 0.00 0.00 0.00 80 1017.8
20210414092837 46 0 0.0 0.0 0.00 0.00 0.00 80 1017.8
20210414092308 46 0 0.0 0.0 0.00 0.00 0.00 80 1017.8
20210414091516 46 0 0.0 0.0 0.00 0.00 0.00 80 1017.7
20210414091026 46 0 0.0 0.0 0.00 0.00 0.00 80 1017.7
20210414090518 46 0 0.0 0.0 0.00 0.00 0.00 80 1017.8
20210414090030 47 0 0.0 0.0 0.00 0.00 0.00 80 1017.7
20210414085809 47 0 0.0 0.0 0.00 0.00 0.00 79 1017.7
20210414085044 47 86 0.0 0.9 0.00 0.00 0.00 79 1017.7
20210414084516 47 86 0.0 0.9 0.00 0.00 0.00 79 1017.7
20210414084034 47 86 0.0 0.9 0.00 0.00 0.00 79 1017.6
20210414083525 47 86 0.0 0.9 0.00 0.00 0.00 79 1017.6
20210414083039 47 0 0.0 0.0 0.00 0.00 0.00 79 1017.6
20210414082738 47 0 0.0 0.0 0.00 0.00 0.00 79 1017.6
20210414082221 47 0 0.0 0.0 0.00 0.00 0.00 78 1017.6
20210414081524 47 0 0.0 0.0 0.00 0.00 0.00 78 1017.6
20210414081022 48 86 0.0 0.9 0.00 0.00 0.00 78 1017.6
20210414080518 48 86 0.0 1.7 0.00 0.00 0.00 78 1017.6
20210414080055 48 86 0.0 1.7 0.00 0.00 0.00 77 1017.6
20210414075732 48 86 0.0 1.7 0.00 0.00 0.00 77 1017.5
20210414075244 48 85 0.0 1.7 0.00 0.00 0.00 77 1017.5
20210414074517 48 85 0.0 0.9 0.00 0.00 0.00 77 1017.5
20210414074032 48 0 0.0 0.0 0.00 0.00 0.00 76 1017.4
20210414073516 48 0 0.0 0.0 0.00 0.00 0.00 76 1017.4
20210414073021 48 0 0.0 0.0 0.00 0.00 0.00 76 1017.4
20210414072829 48 0 0.0 0.0 0.00 0.00 0.00 76 1017.2
20210414072251 49 85 0.0 1.7 0.00 0.00 0.00 76 1017.2
20210414071519 49 83 0.9 6.1 0.00 0.00 0.00 76 1017.2
20210414071020 49 86 0.9 6.1 0.00 0.00 0.00 76 1017.2
20210414070514 49 91 0.9 6.1 0.00 0.00 0.00 76 1017.2
20210414070110 49 95 0.9 1.7 0.00 0.00 0.00 75 1017.1
20210414065857 49 92 0.9 5.2 0.00 0.00 0.00 75 1017.1
20210414065448 50 92 0.9 5.2 0.00 0.00 0.00 75 1017.1
20210414064521 50 101 0.9 5.2 0.00 0.00 0.00 75 1017.1
20210414064023 50 108 0.9 1.7 0.00 0.00 0.00 75 1017.0
20210414063512 50 102 0.9 3.5 0.00 0.00 0.00 75 1017.0
20210414063030 50 90 0.9 6.1 0.00 0.00 0.00 75 1017.0
20210414062752 50 85 0.9 6.1 0.00 0.00 0.00 74 1016.8
20210414062150 50 81 0.9 5.2 0.00 0.00 0.00 75 1016.8
20210414061513 50 89 1.7 7.0 0.00 0.00 0.00 75 1016.6
20210414061021 50 96 0.9 7.0 0.00 0.00 0.00 75 1016.6
20210414060513 50 102 0.9 5.2 0.00 0.00 0.00 76 1016.6
20210414060151 50 97 0.9 5.2 0.00 0.00 0.00 76 1016.6
20210414055931 50 83 0.0 1.7 0.00 0.00 0.00 79 1016.5
20210414055148 50 0 0.0 0.0 0.00 0.00 0.00 80 1016.5
20210414054524 50 0 0.0 0.0 0.00 0.00 0.00 80 1016.5
20210414054026 50 0 0.0 0.0 0.00 0.00 0.00 80 1016.4
20210414053513 50 0 0.0 0.0 0.00 0.00 0.00 80 1016.4
20210414053028 50 0 0.0 0.0 0.00 0.00 0.00 81 1016.4
20210414052831 50 0 0.0 0.0 0.00 0.00 0.00 81 1016.4
20210414052335 50 0 0.0 0.0 0.00 0.00 0.00 81 1016.4
20210414051516 50 0 0.0 0.0 0.00 0.00 0.00 81 1016.4
20210414051020 50 0 0.0 0.0 0.00 0.00 0.00 81 1016.4
20210414050512 50 0 0.0 0.0 0.00 0.00 0.00 81 1016.4
20210414050226 50 0 0.0 0.0 0.00 0.00 0.00 80 1016.3
20210414050041 50 0 0.0 0.0 0.00 0.00 0.00 81 1016.2
20210414045530 50 0 0.0 0.0 0.00 0.00 0.00 80 1016.2
20210414044513 50 0 0.0 0.0 0.00 0.00 0.00 81 1016.2
20210414044022 50 0 0.0 0.0 0.00 0.00 0.00 79 1016.1
20210414043513 50 0 0.0 0.0 0.00 0.00 0.00 79 1016.1
20210414043047 50 0 0.0 0.0 0.00 0.00 0.00 78 1016.1
20210414042850 50 0 0.0 0.0 0.00 0.00 0.00 77 1016.1
20210414042244 51 0 0.0 0.0 0.00 0.00 0.00 77 1016.1
20210414041523 51 0 0.0 0.0 0.00 0.00 0.00 77 1016.1
20210414041033 51 0 0.0 0.0 0.00 0.00 0.00 76 1016.2
20210414040637 51 0 0.0 0.0 0.00 0.00 0.00 76 1016.2
20210414040247 51 0 0.0 0.0 0.00 0.00 0.00 75 1016.1
20210414035958 51 0 0.0 0.0 0.00 0.00 0.00 74 1016.1
20210414035316 52 0 0.0 0.0 0.00 0.00 0.00 74 1016.1
20210414034529 52 0 0.0 0.0 0.00 0.00 0.00 73 1016.0
20210414034023 52 0 0.0 0.0 0.00 0.00 0.00 72 1016.0
20210414033546 52 0 0.0 0.0 0.00 0.00 0.00 72 1016.0
20210414033343 53 0 0.0 0.0 0.00 0.00 0.00 72 1016.0
20210414033109 53 0 0.0 0.0 0.00 0.00 0.00 71 1016.0
20210414032513 53 0 0.0 0.0 0.00 0.00 0.00 70 1016.0
20210414031520 53 0 0.0 0.0 0.00 0.00 0.00 70 1016.0
20210414031027 54 0 0.0 0.0 0.00 0.00 0.00 70 1016.0
20210414030533 54 0 0.0 0.0 0.00 0.00 0.00 69 1016.0
20210414030053 54 0 0.0 0.0 0.00 0.00 0.00 69 1015.9
20210414025920 55 0 0.0 0.0 0.00 0.00 0.00 68 1015.9
20210414025412 55 0 0.0 0.0 0.00 0.00 0.00 68 1015.9
20210414024527 55 0 0.0 0.0 0.00 0.00 0.00 68 1015.9
20210414024025 55 0 0.0 0.0 0.00 0.00 0.00 68 1015.9
20210414023517 56 0 0.0 0.0 0.00 0.00 0.00 67 1016.0
20210414023108 56 0 0.0 0.0 0.00 0.00 0.00 66 1016.0
20210414022906 56 0 0.0 0.0 0.00 0.00 0.00 66 1016.0
20210414022349 56 0 0.0 0.0 0.00 0.00 0.00 67 1016.0
20210414021523 56 0 0.0 0.0 0.00 0.00 0.00 67 1016.0
20210414021042 56 0 0.0 0.0 0.00 0.00 0.00 66 1016.0
20210414020518 56 0 0.0 0.0 0.00 0.00 0.00 66 1016.0
20210414015944 56 0 0.0 0.0 0.00 0.00 0.00 66 1015.9
20210414015340 56 0 0.0 0.0 0.00 0.00 0.00 65 1015.9
20210414014522 56 0 0.0 0.0 0.00 0.00 0.00 66 1016.0
20210414014027 56 0 0.0 0.0 0.00 0.00 0.00 65 1016.0
20210414013510 56 0 0.0 0.0 0.00 0.00 0.00 65 1016.0
20210414012932 57 0 0.0 0.0 0.00 0.00 0.00 65 1016.2
20210414012156 57 0 0.0 0.0 0.00 0.00 0.00 64 1016.2
20210414011511 57 0 0.0 0.0 0.00 0.00 0.00 64 1016.3
20210414011037 57 0 0.0 0.0 0.00 0.00 0.00 64 1016.3
20210414010513 57 102 0.0 0.9 0.00 0.00 0.00 65 1016.3
20210414010224 57 102 0.0 1.7 0.00 0.00 0.00 65 1016.0
20210414005742 57 0 0.0 0.0 0.00 0.00 0.00 66 1016.0
20210414004522 58 0 0.0 0.0 0.00 0.00 0.00 65 1016.0
20210414004021 58 0 0.0 0.0 0.00 0.00 0.00 65 1016.0
20210414003520 58 0 0.0 0.0 0.00 0.00 0.00 65 1016.0
20210414002230 59 0 0.0 0.0 0.00 0.00 0.00 63 1015.9
20210414001526 59 0 0.0 0.0 0.00 0.00 0.00 63 1015.9
20210414001032 59 0 0.0 0.0 0.00 0.00 0.00 62 1015.9
20210414000527 60 0 0.0 0.0 0.00 0.00 0.00 61 1015.9
20210414000032 60 0 0.0 0.0 0.00 0.00 0.00 61 1015.8
20210413235649 61 0 0.0 0.0 0.00 0.00 0.00 59 1015.7
20210413234520 61 0 0.0 0.0 0.00 0.00 0.00 59 1015.7
20210413234023 61 0 0.0 0.0 0.00 0.00 0.00 58 1015.6
20210413233523 61 0 0.0 0.0 0.00 0.00 0.00 57 1015.6
20210413233000 62 0 0.0 0.0 0.00 0.00 0.00 57 1015.6
20210413232328 62 0 0.0 0.0 0.00 0.00 0.00 56 1015.6
20210413231517 62 0 0.0 0.0 0.00 0.00 0.00 56 1015.6
20210413231018 63 0 0.0 0.0 0.00 0.00 0.00 55 1015.5
20210413230512 63 0 0.0 0.0 0.00 0.00 0.00 54 1015.5
20210413230246 63 0 0.0 0.0 0.00 0.00 0.00 53 1015.4
20210413225949 64 0 0.0 0.0 0.00 0.00 0.00 53 1015.5
20210413225606 64 0 0.0 0.0 0.00 0.00 0.00 51 1015.5
20210413224552 64 0 0.0 0.0 0.00 0.00 0.00 51 1015.5
20210413224032 64 0 0.0 0.0 0.00 0.00 0.00 50 1015.4
20210413223530 64 0 0.0 0.0 0.00 0.00 0.00 48 1015.4
20210413223103 64 0 0.0 0.0 0.00 0.00 0.00 48 1015.4
20210413222943 65 0 0.0 0.0 0.00 0.00 0.00 48 1015.4
20210413222425 65 0 0.0 0.0 0.00 0.00 0.00 48 1015.4
20210413221519 65 0 0.0 0.0 0.00 0.00 0.00 47 1015.4
20210413221040 65 100 0.0 0.9 0.00 0.00 0.00 47 1015.4
20210413220530 65 100 0.0 0.9 0.00 0.00 0.00 47 1015.4
20210413220238 65 100 0.0 0.9 0.00 0.00 0.00 47 1015.4
20210413220057 65 99 0.0 1.7 0.00 0.00 0.00 47 1015.3
20210413215433 65 99 0.0 1.7 0.00 0.00 0.00 46 1015.3
20210413214522 66 100 0.0 0.9 0.00 0.00 0.00 46 1015.4
20210413213056 66 125 0.0 3.5 0.00 0.00 0.00 45 1015.4
20210413212911 66 125 0.9 3.5 0.00 0.00 0.00 45 1015.3
20210413212345 66 123 0.9 3.5 0.00 0.00 0.00 46 1015.3
20210413211023 66 116 0.9 3.5 0.00 0.00 0.00 45 1015.3
20210413210521 66 124 0.9 3.5 0.00 0.00 0.00 45 1015.3
20210413210040 66 125 0.9 3.5 0.00 0.00 0.00 45 1015.3
20210413205818 66 109 0.9 3.5 0.00 0.00 0.00 45 1015.3
20210413205215 66 86 1.7 6.1 0.00 0.00 0.00 45 1015.3
20210413204520 66 81 1.7 6.1 0.00 0.00 0.00 45 1015.3
20210413204026 66 105 0.9 3.5 0.00 0.00 0.00 45 1015.3
20210413203744 66 125 0.0 3.5 0.00 0.00 0.00 45 1015.3
20210413203121 66 101 0.9 5.2 0.00 0.00 0.00 46 1015.3
20210413202920 66 112 0.9 5.2 0.00 0.00 0.00 47 1015.4
20210413202225 65 111 0.9 5.2 0.00 0.00 0.00 47 1015.4
20210413201523 65 44 0.9 3.5 0.00 0.00 0.00 47 1015.4
20210413201021 65 28 0.9 3.5 0.00 0.00 0.00 47 1015.4
20210413200528 66 23 0.9 1.7 0.00 0.00 0.00 46 1015.4
20210413200241 66 45 0.0 1.7 0.00 0.00 0.00 46 1015.4
20210413200045 66 90 0.0 1.7 0.00 0.00 0.00 45 1015.4
20210413195124 66 90 0.0 1.7 0.00 0.00 0.00 45 1015.4
20210413194516 66 104 0.9 5.2 0.00 0.00 0.00 45 1015.4
20210413194030 67 107 0.9 5.2 0.00 0.00 0.00 46 1015.4
20210413193520 67 112 0.9 3.5 0.00 0.00 0.00 44 1015.4
20210413193140 67 113 0.9 3.5 0.00 0.00 0.00 46 1015.4
20210413192928 67 98 0.9 5.2 0.00 0.00 0.00 44 1015.4
20210413192437 67 94 0.9 5.2 0.00 0.00 0.00 46 1015.4
20210413191523 66 98 0.9 6.1 0.00 0.00 0.00 46 1015.4
20210413191020 66 96 0.9 6.1 0.00 0.00 0.00 46 1015.4
20210413190532 67 72 0.9 3.5 0.00 0.00 0.00 45 1015.4
20210413190112 67 18 0.9 3.5 0.00 0.00 0.00 45 1015.4
20210413185902 67 28 0.9 3.5 0.00 0.00 0.00 44 1015.4
20210413185221 67 132 0.0 3.5 0.00 0.00 0.00 44 1015.4
20210413184520 67 133 1.7 5.2 0.00 0.00 0.00 43 1015.5
20210413184021 67 119 2.6 6.1 0.00 0.00 0.00 45 1015.5
20210413183523 67 101 1.7 6.1 0.00 0.00 0.00 47 1015.5
20210413183028 66 47 0.0 3.5 0.00 0.00 0.00 47 1015.5
20210413182847 66 354 0.9 3.5 0.00 0.00 0.00 45 1015.8
20210413182136 66 348 0.9 3.5 0.00 0.00 0.00 45 1015.8
20210413181519 66 358 0.9 3.5 0.00 0.00 0.00 46 1015.8
20210413181032 66 40 0.9 3.5 0.00 0.00 0.00 46 1015.9
20210413180512 67 59 0.9 5.2 0.00 0.00 0.00 45 1015.9
20210413180020 66 96 1.7 6.1 0.00 0.00 0.00 45 1015.9
20210413175745 66 120 0.9 6.1 0.00 0.00 0.00 46 1016.0
20210413175131 65 124 0.9 5.2 0.00 0.00 0.00 48 1016.0
20210413174517 65 126 0.9 3.5 0.00 0.00 0.00 48 1016.0
20210413174020 64 96 0.9 3.5 0.00 0.00 0.00 49 1016.3
20210413173511 63 39 0.0 3.5 0.00 0.00 0.00 51 1016.3
20210413173043 62 37 0.0 3.5 0.00 0.00 0.00 51 1016.3
20210413172908 62 61 0.9 3.5 0.00 0.00 0.00 51 1016.4
20210413172346 62 101 0.0 1.7 0.00 0.00 0.00 52 1016.4
20210413171513 62 131 0.9 3.5 0.00 0.00 0.00 52 1016.4
20210413171022 61 135 0.9 3.5 0.00 0.00 0.00 53 1016.5
20210413170518 61 123 0.0 1.7 0.00 0.00 0.00 54 1016.5
20210413170121 61 113 0.0 1.7 0.00 0.00 0.00 52 1016.5
20210413165858 61 101 0.0 1.7 0.00 0.00 0.00 52 1016.5
20210413165241 60 81 0.0 3.5 0.00 0.00 0.00 54 1016.5
20210413164517 60 64 0.0 3.5 0.00 0.00 0.00 54 1016.5
20210413164033 60 55 0.0 1.7 0.00 0.00 0.00 54 1016.5
20210413163509 60 102 0.9 5.2 0.00 0.00 0.00 53 1016.5
20210413163214 60 357 0.9 5.2 0.00 0.00 0.00 54 1016.5
20210413163016 60 335 0.9 5.2 0.00 0.00 0.00 54 1016.5
20210413162639 60 23 0.9 3.5 0.00 0.00 0.00 53 1016.5
20210413161513 60 23 0.9 3.5 0.00 0.00 0.00 53 1016.5
20210413161022 60 51 0.9 5.2 0.00 0.00 0.00 53 1016.6
20210413160530 60 77 0.9 5.2 0.00 0.00 0.00 53 1016.6
20210413160208 60 83 0.0 3.5 0.00 0.00 0.00 53 1016.6
20210413155953 60 83 0.0 3.5 0.00 0.00 0.00 55 1016.8
20210413155519 60 108 0.9 7.8 0.00 0.00 0.00 55 1016.8
20210413154521 60 107 1.7 7.8 0.00 0.00 0.00 55 1016.8
20210413154018 59 104 1.7 6.1 0.00 0.00 0.00 56 1016.8
20210413153512 59 108 1.7 6.1 0.00 0.00 0.00 57 1016.8
20210413153117 58 92 1.7 7.0 0.00 0.00 0.00 58 1016.8
20210413152925 58 83 1.7 7.8 0.00 0.00 0.00 59 1016.7
20210413152448 57 85 0.9 7.8 0.00 0.00 0.00 58 1016.7
20210413151525 57 46 0.0 1.7 0.00 0.00 0.00 58 1016.7
20210413151021 57 35 0.9 1.7 0.00 0.00 0.00 57 1016.8
20210413150616 56 28 0.0 1.7 0.00 0.00 0.00 60 1016.8
20210413150242 56 45 0.0 1.7 0.00 0.00 0.00 59 1016.9
20210413145707 56 62 0.0 1.7 0.00 0.00 0.00 61 1016.9
20210413144031 55 93 0.9 5.2 0.00 0.00 0.00 62 1016.9
20210413143143 55 50 1.7 6.1 0.00 0.00 0.00 63 1016.9
20210413143032 54 349 0.9 3.5 0.00 0.00 0.00 63 1016.9
20210413142158 54 350 0.9 5.2 0.00 0.00 0.00 64 1016.9
20210413141028 52 46 0.9 3.5 0.00 0.00 0.00 67 1016.9
20210413140511 52 30 0.9 5.2 0.00 0.00 0.00 68 1016.9
20210413140131 52 21 0.9 5.2 0.00 0.00 0.00 69 1016.9
20210413140035 51 23 0.9 3.5 0.00 0.00 0.00 70 1017.0
20210413135519 50 33 0.9 3.5 0.00 0.00 0.00 72 1017.0
20210413134028 49 81 0.9 6.1 0.00 0.00 0.00 81 1017.0
20210413133523 48 94 1.7 6.1 0.00 0.00 0.00 85 1017.0
20210413132932 46 101 0.9 6.1 0.00 0.00 0.00 92 1016.9
20210413132234 45 55 0.9 3.5 0.00 0.00 0.00 96 1016.9
20210413131026 44 0 0.0 0.0 0.00 0.00 0.00 100 1016.9
20210413130102 42 0 0.0 0.0 0.00 0.00 0.00 100 1016.9
20210413125846 42 0 0.0 0.0 0.00 0.00 0.00 100 1016.9
20210413124547 42 0 0.0 0.0 0.00 0.00 0.00 100 1017.0
20210413122920 39 0 0.0 0.0 0.00 0.00 0.00 100 1016.9
20210413121030 38 0 0.0 0.0 0.00 0.00 0.00 100 1016.8
20210413120532 38 0 0.0 0.0 0.00 0.00 0.00 100 1016.8